Tracking 25701 objects as of 4-Jul-2022
HD Live streaming from Space Station
objects crossing your sky now

FENGYUN 1C DEB

Track FENGYUN 1C DEB now!
10-day predictions


NORAD ID: 32156
Int'l Code: 1999-025CTA
Perigee: 742.6 km
Apogee: 869.3 km
Inclination: 99.3 °
Period: 100.8 minutes
Semi major axis: 7176 km
RCS: 0.0148 m2 (small)
Launch date: May 10, 1999
Source: People's Republic of China (PRC)
Launch site: Taiyaun Space Center, China (TSC)

Note: This is SATELLITE DEBRIS
aabbcc
Your satellite tracking list
Your tracking list is empty




NASA's NSSDC Master Catalog

Two Line Element Set (TLE):
1 32156U 99025CTA 22171.96639091  .00000488  00000-0  20804-3 0  9995
2 32156  99.2973 239.8642 0088296 110.0960 250.9748 14.27877596466638
Source of the keplerian elements: AFSPC